カタログに戻る

SL-8 R/B

運用中LEO
NORAD 8295·ROCKET BODY·🇷🇺 Russia

打ち上げ Sep 17, 1975 から Plesetsk Cosmodrome

Loading…

次のパス (今後24時間)

TLE

最新Source: Space-Track

元期: Sep 14, 2026, 06:16 UTC

1 08295U 75086J   26257.26142948 -.00000029  00000-0 -13033-3 0  9994
2 08295  74.0155 353.5751 0126999  20.7424   7.7125 12.22057260275218

AllMySatでSL-8 R/Bをリアルタイム追跡

Download on the App Store